Location: Beaurecueil
(43.5122°N, 5.5450°E)
Time: 16:14:35
(UTC+00:00)

Cosmos 1174 - Pass Details

Date: 18 September 2020
Orbit: 362 x 1155 km, 66.1° (Epoch: 20 October)

Event Time Altitude Azimuth Distance (km) Brightness Sun altitude
Rises 19:21:35 0° 203° (SSW) 2,864 7.5 -18.5°
Reaches altitude 10° 19:23:37 10° 201° (SSW) 2,073 6.7 -18.8°
Maximum altitude 19:28:20 70° 118° (ESE) 828 4.4 -19.6°
Drops below altitude 10° 19:34:23 10° 36° (NE) 2,628 7.1 -20.6°
Sets 19:37:13 0° 34° (NE) 3,696 7.9 -21.1°
